#timestamp,LO_Frequency,Hit,StdDev 
1648836015.0,286047009.0,N
1648836015.9,286047009.0,N
1648836035.8,286047002.8,N
1648836055.6,286046995.3,N
1648836075.4,286046988.9,N
1648836095.3,286046986.2,N
1648836115.1,286046986.2,N
1648836135.8,286046996.3,N
1648836155.7,286047001.2,N
1648836175.5,286047006.7,N
1648836195.4,286047010.5,N
1648836215.2,286047011.2,N
1648836235.0,286047003.2,N
1648836235.9,286047003.2,N
1648836255.8,286046999.6,N
1648836275.6,286046997.6,N
1648836295.4,286046994.6,N
1648836315.3,286046998.0,N
1648836335.1,286046997.8,N
1648836355.9,286046995.6,N
1648836375.7,286046992.3,N
1648836395.5,286046988.8,N
1648836415.4,286046993.5,N
1648836435.2,286046995.0,N
1648836455.0,286047004.2,N
1648836455.9,286047004.2,N
1648836475.8,286047006.8,N
1648836495.6,286047000.9,N
1648836515.5,286047002.4,N
1648836535.3,286046996.6,N
1648836555.1,286047001.1,N
1648836575.9,286046993.6,N
1648836595.7,286047000.4,N
1648836615.5,286047002.8,N
1648836635.4,286047001.4,N
1648836655.2,286046998.3,N
1648836675.1,286046997.8,N
1648836676.0,286046997.8,N
1648836695.8,286046990.2,N
1648836715.6,286046992.6,N
1648836735.5,286046991.6,N
1648836755.3,286046984.7,Y
1648836775.2,286046984.4,P
1648836795.9,286046982.5,N
1648836815.7,286046984.0,N
1648836835.6,286046991.3,N
1648836855.4,286046995.6,N
1648836875.2,286046991.8,N
1648836895.1,286046994.0,N
1648836896.0,286046994.0,N
1648836915.8,286046994.8,N
1648836935.7,286046999.5,N
1648836955.5,286046991.8,N
1648836975.3,286046995.5,N
1648836995.2,286046998.8,N
1648837015.0,286046999.1,N
1648837015.9,286046999.1,N
1648837035.7,286046995.8,N
1648837055.6,286046993.8,N
1648837075.4,286046992.8,N
1648837095.3,286046985.9,N
1648837115.1,286046987.6,N
1648837116.0,286046987.6,N
1648837135.8,286046993.9,N
1648837155.7,286046993.8,N
1648837175.5,286046992.5,N
1648837195.3,286046989.8,N
1648837215.2,286046997.3,N
1648837235.0,286047002.6,N
1648837235.9,286047002.6,N
1648837255.8,286046994.9,N
1648837275.6,286046995.5,N
1648837295.4,286046996.6,N
1648837315.3,286046993.6,N
1648837335.1,286046986.3,Y
1648837355.8,286046996.0,P
1648837375.7,286046995.3,P
1648837395.5,286046996.4,P
1648837415.4,286046991.0,Y
1648837435.2,286046997.3,P
1648837455.0,286047001.9,N
1648837455.9,286047001.9,N
1648837475.8,286047003.5,N
1648837495.6,286047002.2,N
1648837515.5,286046999.3,N
1648837535.3,286046998.7,N
1648837555.1,286047000.0,N
1648837575.9,286047003.4,N
1648837595.7,286047005.6,N
1648837615.6,286046999.7,N
1648837635.4,286046996.9,N
1648837655.2,286046993.5,N
1648837675.1,286046995.6,N
1648837676.0,286046995.6,N
1648837695.8,286047001.2,N
1648837715.6,286047007.0,N
1648837735.5,286047006.0,N
1648837755.3,286047001.0,N
1648837775.2,286047006.2,N
1648837795.9,286047006.6,N
1648837815.7,286047004.9,N
1648837835.6,286047005.1,N
1648837855.4,286047005.7,N
1648837875.2,286047008.1,N
1648837895.1,286047011.9,N
1648837896.0,286047011.9,N
1648837915.8,286047009.8,N
1648837935.7,286047010.0,N
1648837955.5,286047005.7,N
1648837975.3,286047000.2,N
1648837995.2,286046998.5,N
1648838015.0,286046999.4,N
1648838015.9,286046999.4,N
1648838035.7,286047005.1,N
1648838055.6,286047008.0,N
1648838075.4,286047005.1,N
1648838095.3,286047000.5,N
1648838115.1,286047000.5,N
1648838116.0,286047000.5,N
1648838135.8,286047002.1,N
1648838155.7,286047006.1,N
1648838175.5,286047007.7,N
1648838195.3,286047010.5,N
1648838215.2,286047011.0,N
1648838235.0,286047012.1,Y
1648838235.9,286047012.1,P
1648838255.8,286047001.7,N
1648838275.6,286046999.6,N
1648838295.4,286046998.5,N
1648838315.3,286047001.5,N
1648838335.1,286047003.3,N
1648838355.8,286047002.8,N
1648838375.7,286047002.3,N
1648838395.5,286047005.7,N
1648838415.4,286047009.0,N
1648838435.2,286047004.0,N
1648838455.0,286047007.4,N
1648838455.9,286047007.4,N
1648838475.8,286047014.2,Y
1648838495.6,286047014.4,P
1648838515.4,286047006.8,N
1648838535.3,286047008.6,N
1648838555.1,286047008.4,N
1648838575.9,286047006.4,N
1648838595.7,286047003.5,N
1648838615.5,286047008.2,N
1648838635.4,286047006.9,N
1648838655.2,286047008.5,N
1648838675.0,286047007.8,N
1648838676.0,286047007.8,N
1648838695.8,286047004.7,N
1648838715.6,286046998.9,N
1648838735.5,286047002.4,N
1648838755.3,286047002.3,N
1648838775.1,286046999.8,N
1648838795.9,286047000.1,N
1648838815.7,286046999.8,N
1648838835.5,286046998.1,N
1648838855.4,286046998.1,N
1648838875.2,286047003.6,N
1648838895.1,286047003.8,N
1648838896.0,286047003.8,N
1648838915.8,286047005.2,N
1648838935.6,286047007.3,N
1648838955.5,286047004.0,N
1648838975.3,286047001.2,N
1648838995.1,286047000.3,N
1648839015.9,286047002.3,N
1648839035.7,286047002.7,N
1648839055.6,286047002.6,N
1648839075.4,286046999.2,N
1648839095.2,286046997.4,N
1648839115.1,286046998.2,N
1648839116.0,286046998.2,N
1648839135.8,286046995.2,N
1648839155.7,286046992.4,N
1648839175.5,286046995.0,N
1648839195.3,286047003.3,N
1648839215.2,286047001.2,N
1648839235.0,286047001.1,N
1648839235.9,286047001.1,N
1648839255.7,286046995.6,N
1648839275.6,286046991.9,N
1648839295.4,286046994.3,N
1648839315.3,286046997.6,N
1648839335.1,286047000.4,N
1648839336.0,286047000.4,N
1648839355.8,286046994.9,N
1648839375.7,286047003.2,N
1648839395.5,286046998.2,N
1648839415.3,286046996.7,N
1648839435.2,286047005.5,N
1648839455.0,286047003.0,N
1648839455.9,286047003.0,N
1648839475.8,286047004.1,N
1648839495.6,286047007.2,N
1648839515.4,286046999.8,N
1648839535.3,286047000.5,N
1648839555.1,286046995.8,N
1648839575.9,286046997.9,N
1648839595.7,286046994.3,N
